RPC9008 RPLL-RPLL

Flight info

Callsign RPC9008
Flight time N/A
Altitude 1500
Route RPLL LOCAL RPLL
Aircraft C172/L-VGDW/C

Departure

Time 2026-05-07 14:53
Airport Ninoy Aquino International Airport (RPLL)

Arrival

Time N/A
Airport Ninoy Aquino International Airport (RPLL)
Time Latitude Longitude Altitude Speed Heading
2026-05-07 14:28 14.51831 121.00425 77 ft 0 kts 155°
2026-05-07 14:46 14.51830 121.00426 77 ft 1 kts 117°
2026-05-07 14:47 14.51822 121.00444 77 ft 4 kts 110°
2026-05-07 14:47 14.51816 121.00454 77 ft 0 kts 153°
2026-05-07 14:47 14.51812 121.00468 77 ft 4 kts 90°
2026-05-07 14:47 14.51820 121.00492 77 ft 6 kts 63°
2026-05-07 14:48 14.51848 121.00552 77 ft 0 kts 63°
2026-05-07 14:48 14.51856 121.00567 77 ft 7 kts 65°
2026-05-07 14:48 14.51918 121.00601 77 ft 13 kts 11°
2026-05-07 14:48 14.51977 121.00613 77 ft 0 kts 12°
2026-05-07 14:49 14.51978 121.00613 77 ft 0 kts 16°
2026-05-07 14:49 14.52007 121.00617 77 ft 7 kts
2026-05-07 14:49 14.52051 121.00626 77 ft 10 kts 11°
2026-05-07 14:49 14.52116 121.00651 77 ft 9 kts 63°
2026-05-07 14:50 14.52109 121.00667 77 ft 0 kts 131°
2026-05-07 14:52 14.52027 121.00754 77 ft 41 kts 137°
2026-05-07 14:52 14.51839 121.00944 77 ft 69 kts 135°
2026-05-07 14:53 14.51375 121.01433 293 ft 72 kts 130°
2026-05-07 14:53 14.50977 121.01786 450 ft 76 kts 132°
2026-05-07 14:53 14.50557 121.02116 622 ft 76 kts 139°
2026-05-07 14:53 14.50141 121.02454 786 ft 76 kts 133°
2026-05-07 14:54 14.49875 121.02710 859 ft 80 kts 128°
2026-05-07 14:54 14.49451 121.03050 1060 ft 76 kts 144°
2026-05-07 14:54 14.48693 121.03095 1175 ft 92 kts 208°
2026-05-07 14:54 14.48459 121.02716 1214 ft 96 kts 253°
2026-05-07 14:55 14.48113 121.01875 1346 ft 94 kts 239°
2026-05-07 14:55 14.47891 121.01480 1411 ft 94 kts 231°
2026-05-07 14:55 14.47488 121.00661 1535 ft 95 kts 243°
2026-05-07 14:55 14.47291 121.00230 1534 ft 101 kts 241°
2026-05-07 14:56 14.46981 120.99572 1594 ft 101 kts 245°
2026-05-07 14:56 14.46681 120.98895 1601 ft 103 kts 244°
2026-05-07 14:56 14.46407 120.98226 1554 ft 100 kts 247°
2026-05-07 14:56 14.46092 120.97627 1557 ft 90 kts 204°
2026-05-07 14:57 14.45448 120.97783 1572 ft 72 kts 105°
2026-05-07 14:57 14.45618 120.98213 1583 ft 80 kts 24°
2026-05-07 14:57 14.45970 120.98080 1630 ft 96 kts 303°
2026-05-07 14:57 14.45601 120.97563 1677 ft 96 kts 175°
2026-05-07 14:58 14.45228 120.97952 1722 ft 78 kts 82°
2026-05-07 14:58 14.45439 120.98420 1825 ft 72 kts 61°
2026-05-07 14:58 14.45930 120.98820 1932 ft 80 kts
2026-05-07 14:58 14.46271 120.98607 1879 ft 92 kts 310°
2026-05-07 14:59 14.46123 120.97673 1490 ft 105 kts 250°
2026-05-07 14:59 14.45875 120.97002 1519 ft 94 kts 232°
2026-05-07 14:59 14.45532 120.96759 1475 ft 90 kts 189°
2026-05-07 14:59 14.44778 120.96836 1475 ft 78 kts 132°
2026-05-07 15:00 14.44697 120.97291 1491 ft 69 kts 52°
2026-05-07 15:00 14.45013 120.97395 1437 ft 88 kts 347°
2026-05-07 15:00 14.45145 120.96835 1488 ft 93 kts 220°
2026-05-07 15:00 14.44619 120.96965 1431 ft 71 kts 74°
2026-05-07 15:01 14.44717 120.97279 1475 ft 62 kts 43°
2026-05-07 15:01 14.45295 120.97199 1388 ft 93 kts 352°
2026-05-07 15:01 14.45929 120.97101 1390 ft 88 kts
2026-05-07 15:01 14.46524 120.97154 1403 ft 84 kts 12°
2026-05-07 15:02 14.47124 120.97154 1442 ft 87 kts
2026-05-07 15:02 14.47899 120.97036 1538 ft 82 kts
2026-05-07 15:02 14.48521 120.96986 1487 ft 92 kts
2026-05-07 15:02 14.48958 120.96975 1489 ft 92 kts
2026-05-07 15:03 14.49599 120.96991 1507 ft 92 kts
2026-05-07 15:03 14.50437 120.97057 1528 ft 91 kts 12°
2026-05-07 15:03 14.50862 120.97105 1526 ft 91 kts 13°
2026-05-07 15:03 14.51496 120.97166 1544 ft 89 kts
2026-05-07 15:04 14.52371 120.97189 1518 ft 93 kts
2026-05-07 15:04 14.52799 120.97171 1572 ft 90 kts 356°
2026-05-07 15:04 14.53420 120.97004 1631 ft 88 kts 347°
2026-05-07 15:04 14.54189 120.96623 1660 ft 95 kts 340°
2026-05-07 15:05 14.54832 120.96271 1606 ft 110 kts 340°
2026-05-07 15:05 14.55305 120.96025 1603 ft 113 kts 339°
2026-05-07 15:05 14.56005 120.95651 1574 ft 112 kts 333°
2026-05-07 15:05 14.56611 120.95207 1500 ft 98 kts 333°
2026-05-07 15:06 14.57148 120.94832 1384 ft 90 kts 332°
2026-05-07 15:06 14.57657 120.94451 1306 ft 85 kts 328°
2026-05-07 15:06 14.58313 120.93926 1337 ft 89 kts 328°
2026-05-07 15:06 14.58652 120.93677 1428 ft 88 kts 336°
2026-05-07 15:07 14.59405 120.93398 1458 ft 84 kts 351°
2026-05-07 15:07 14.59796 120.93293 1454 ft 87 kts 355°
2026-05-07 15:07 14.60387 120.93153 1479 ft 88 kts 355°
2026-05-07 15:07 14.60990 120.92995 1488 ft 87 kts 356°
2026-05-07 15:08 14.61785 120.92921 1519 ft 87 kts
2026-05-07 15:08 14.62198 120.92899 1507 ft 88 kts
2026-05-07 15:08 14.62814 120.92907 1507 ft 88 kts
2026-05-07 15:08 14.63626 120.92960 1529 ft 87 kts 14°
2026-05-07 15:09 14.64038 120.93019 1498 ft 91 kts 15°
2026-05-07 15:09 14.64661 120.93130 1481 ft 88 kts 18°
2026-05-07 15:09 14.65436 120.93354 1467 ft 83 kts 25°
2026-05-07 15:09 14.65795 120.93489 1488 ft 79 kts 26°
2026-05-07 15:10 14.66485 120.93768 1474 ft 79 kts 37°
2026-05-07 15:10 14.66771 120.93990 1429 ft 78 kts 51°
2026-05-07 15:10 14.67117 120.94279 1642 ft 53 kts 20°
2026-05-07 15:10 14.67142 120.93593 1384 ft 107 kts 295°
2026-05-07 15:11 14.67291 120.93668 1355 ft 87 kts 136°
2026-05-07 15:11 14.66824 120.94133 1293 ft 98 kts 122°
2026-05-07 15:11 14.66441 120.94930 1130 ft 90 kts 70°
2026-05-07 15:11 14.66781 120.94991 978 ft 107 kts 264°